This demonstration page uses our WeatherBlox Daily Observations layout. Learn more.

Left ArrowRight Arrow

39.01783, -85.05884

Hourly Observations for October 10, 2016

Temp ( °F °C ) Dew Point ( °F °C ) Humidity (%) Winds ( mph kmh ) Pressure ( in mb ) Visibility ( mi km ) Precip ( " mm )
12:52 am 00:52 Clear 53 11.7 46 7.8 77 77 E 6 9 30.33 1027 10 16 0.00 0.00
1:52 am 01:52 Clear 52 11.1 45 7.2 77 77 E 6 9 30.33 1027 10 16 0.00 0.00
2:52 am 02:52 Clear 51 10.6 43 6.1 74 74 E 5 7 30.34 1028 10 16 0.00 0.00
3:52 am 03:52 Clear 50 10 43 6.1 77 77 E 5 7 30.35 1028 10 16 0.00 0.00
4:52 am 04:52 Clear 49 9.4 42 5.6 77 77 E 6 9 30.35 1028 10 16 0.00 0.00
5:52 am 05:52 Clear 48 8.9 42 5.6 80 80 ESE 5 7 30.37 1028 10 16 0.00 0.00
6:52 am 06:52 Clear 48 8.9 42 5.6 80 80 ESE 6 9 30.38 1029 10 16 0.00 0.00
7:52 am 07:52 Sunny 47 8.3 42 5.6 83 83 ESE 5 7 30.40 1029 10 16 0.00 0.00
8:52 am 08:52 Sunny 51 10.6 43 6.1 74 74 ESE 7 11 30.40 1030 10 16 0.00 0.00
9:52 am 09:52 Sunny 54 12.2 44 6.7 69 69 SE 10 17 30.41 1030 10 16 0.00 0.00
10:52 am 10:52 Mostly Sunny 57 13.9 42 5.6 58 58 SE 13 20 30.42 1030 10 16 0.00 0.00
11:52 am 11:52 Mostly Sunny 61 16.1 43 6.1 52 52 ESE 10 17 30.41 1030 10 16 0.00 0.00
12:52 pm 12:52 Mostly Sunny 63 17.2 44 6.7 50 50 ESE 7 11 30.40 1029 10 16 0.00 0.00
1:52 pm 13:52 Mostly Sunny 65 18.3 45 7.2 49 49 SE 7 11 30.37 1029 10 16 0.00 0.00
2:52 pm 14:52 Mostly Sunny 68 20 47 8.3 47 47 VRB 5 7 30.35 1028 10 16 0.00 0.00
3:52 pm 15:52 Mostly Sunny 69 20.6 47 8.3 45 45 VRB 3 6 30.33 1027 10 16 0.00 0.00
4:52 pm 16:52 Mostly Sunny 68 20 47 8.3 47 47 Calm 30.32 1027 10 16 0.00 0.00
5:52 pm 17:52 Mostly Sunny 68 20 47 8.3 47 47 ESE 3 6 30.31 1026 10 16 0.00 0.00
6:52 pm 18:52 Partly Cloudy 64 17.8 47 8.3 54 54 E 6 9 30.31 1027 10 16 0.00 0.00
7:52 pm 19:52 Mostly Cloudy 61 16.1 48 8.9 63 63 E 5 7 30.32 1027 10 16 0.00 0.00
8:52 pm 20:52 Mostly Cloudy 59 15 47 8.3 64 64 ESE 7 11 30.32 1027 10 16 0.00 0.00
9:52 pm 21:52 Cloudy 58 14.4 47 8.3 67 67 SE 5 7 30.32 1027 10 16 0.00 0.00
10:52 pm 22:52 Cloudy 58 14.4 47 8.3 67 67 ESE 7 11 30.31 1027 10 16 0.00 0.00
11:52 pm 23:52 Mostly Cloudy 57 13.9 47 8.3 69 69 ESE 6 9 30.31 1026 10 16 0.00 0.00

Powered by AerisWeather